CZ-2C DEB (55849 NORAD) Tracking and Keplerian Element Data

This shows tracking and keplerian element data for the satellite.

Feedback or suggestion? Click here.




ElementValue
Catalog55849
NameCZ-2C DEB
Epoch Orbit186
Epoch Day84.68138119
Epoch Year2023
RAAN157.9074
Inclination97.6969
Eccentricity0.0168934
Argument of Perigee125.9949
Mean Anonmoly235.7664
Mean Motion14.85293187
Decay Rate0.00070484
L11 55849U 23032F 23084.68138119 .00070484 00000+0 62948-2 0 9998
L22 55849 97.6969 157.9074 0168934 125.9949 235.7664 14.85293187 1868



Live tracking and technical data element details for CZ-2C DEB (NORAD 55849). CZ-2C DEB can be tracked NOW for your location showing map with azimuth and elevation plus other details from your city location.







IsCatalogInMostPopularTable: catalog: 55849, numindb: 6
Update: records affected: 1



GetName: 55849 CZ-2C DEB

Hit Count: updated at: Tue, 06 Jun 2023 02:59:33 GMT